Flag for Turkmenistan Weather past 2 weeks in Ashgabat, Turkmenistan

Now
95 °F

Sunny.


Feels Like: 90 °F
Forecast: 71 / 97 °F
Wind: 8 mph from Northeast

Location: Ashgabat

Current Time: Sep 2, 2014 at 2:49:47 PM

Latest Report: Sep 2, 2014 at 2:00 PM


Visibility: N/A

Pressure: 29.89 "Hg

Humidity: 11%

Dew point: 34 °F

Location of AshgabatLocation

Historic Weather in Ashgabat — Graph

°F

Ashgabat temperature yesterday

Maximum temperature yesterday: 99 °F (at 4:00 PM)
Minimum temperature yesterday: 79 °F (at 6:00 AM)
Average temperature yesterday: 88 °F

Past Weeks' High & Low Weather Summary

 TemperatureHumidityPressure
High106 °F (Aug 20, 5:00 PM)45% (Aug 31, 8:00 AM)30.01 "Hg (Aug 31, 8:00 AM)
Low70 °F (Aug 27, 6:30 AM)5% (Aug 28, 1:00 PM)29.71 "Hg (Aug 22, 4:00 AM)
Average91 °F18%29.84 "Hg
* Reported Aug 18 1:00 PM — Sep 2 1:00 PM, Ashgabat, Weather by CustomWeather, © 2014

Note: Actual official high and low records may vary slightly from our data, if they occured in-between our weather recording intervals... More about our weather records

Advertising

Ashgabat weather history for previous 24 hours

 ConditionsComfort  
Time TempWeatherWind HumidityBarometerVisibility
1:00 PM
Sep 2
93 °FSunny.6 mph13%29.92 "HgN/A
12:00 PM90 °FSunny.8 mph16%29.92 "HgN/A
11:00 AM86 °FSunny.6 mph17%29.95 "HgN/A
10:00 AM86 °FSunny.3 mph18%29.95 "HgN/A
9:00 AM82 °FSunny.1 mph23%29.92 "HgN/A
8:00 AM77 °FSunny.3 mph32%29.89 "HgN/A
7:00 AM72 °FClear.3 mph36%29.89 "HgN/A
6:00 AM73 °FClear.1 mph36%29.86 "Hg5 mi
5:00 AM75 °FClear.No wind34%29.86 "Hg4 mi
4:00 AM79 °FClear.3 mph30%29.86 "HgN/A
3:00 AM81 °FClear.6 mph26%29.86 "Hg2 mi
2:00 AM84 °FClear.3 mph22%29.86 "Hg2 mi
1:00 AM82 °FClear.3 mph26%29.86 "HgN/A
12:00 AM82 °FClear.3 mph26%29.86 "Hg2 mi
11:00 PM
Sep 1
84 °FClear.1 mph23%29.86 "Hg4 mi
10:00 PM82 °FClear.3 mph26%29.86 "Hg6 mi
9:00 PM88 °FClear.3 mph21%29.86 "Hg5 mi
8:00 PM93 °FSunny.6 mph17%29.83 "HgN/A
7:00 PM97 °FSunny.8 mph13%29.83 "HgN/A
6:00 PM99 °FSunny.6 mph13%29.83 "HgN/A
5:00 PM99 °FSunny.10 mph13%29.83 "HgN/A
4:00 PM99 °FSunny.10 mph14%29.83 "HgN/A
3:00 PM97 °FSunny.10 mph16%29.86 "HgN/A
2:00 PM95 °FSunny.10 mph19%29.86 "HgN/A
Weather by CustomWeather, © 2014

See weather overviewHow to use our weather pages